EZY44C LOWI-EGKK

Flight info

Callsign EZY44C
Flight time 1h 35m
Altitude 38000
Route MOGTI P66 KPT L608 KUNOD DCT LIRSU DCT ARCKY DCT BUB L608 DENUT L610 TEBRA
Aircraft A319/M-SDE3FGHIRWY/LB1

Departure

Time 2026-05-04 08:43
Airport Innsbruck Airport (LOWI)

Arrival

Time 2026-05-04 10:19
Airport London Gatwick Airport (EGKK)
Time Latitude Longitude Altitude Speed Heading
2026-05-04 07:59 47.25833 11.35177 1895 ft 0 kts 171°
2026-05-04 08:35 47.25886 11.35161 1897 ft 4 kts 110°
2026-05-04 08:35 47.25887 11.35126 1900 ft 4 kts 81°
2026-05-04 08:35 47.25886 11.35115 1897 ft 0 kts 81°
2026-05-04 08:37 47.25886 11.35117 1902 ft 1 kts 81°
2026-05-04 08:37 47.25897 11.35219 1901 ft 11 kts 82°
2026-05-04 08:38 47.25924 11.35285 1904 ft 8 kts 14°
2026-05-04 08:38 47.25977 11.35279 1899 ft 0 kts 351°
2026-05-04 08:38 47.25976 11.35279 1899 ft 0 kts 351°
2026-05-04 08:41 47.25982 11.35277 1894 ft 4 kts 351°
2026-05-04 08:41 47.26075 11.35258 1898 ft 18 kts
2026-05-04 08:41 47.26121 11.35389 1904 ft 19 kts 77°
2026-05-04 08:42 47.26128 11.35582 1904 ft 15 kts 124°
2026-05-04 08:42 47.26130 11.35723 1900 ft 13 kts 29°
2026-05-04 08:42 47.26156 11.35653 1900 ft 0 kts 261°
2026-05-04 08:42 47.26127 11.35378 1890 ft 67 kts 261°
2026-05-04 08:43 47.26016 11.34361 1905 ft 131 kts 261°
2026-05-04 08:43 47.25847 11.32863 2211 ft 153 kts 260°
2026-05-04 08:43 47.25682 11.31322 2900 ft 154 kts 259°
2026-05-04 08:43 47.25520 11.29720 3501 ft 166 kts 260°
2026-05-04 08:44 47.25366 11.27924 3858 ft 187 kts 263°
2026-05-04 08:44 47.25508 11.25931 4245 ft 210 kts 288°
2026-05-04 08:46 47.30041 11.10299 9765 ft 274 kts 286°
2026-05-04 08:46 47.30448 11.07465 10259 ft 293 kts 272°
2026-05-04 08:46 47.30419 11.04355 10646 ft 316 kts 264°
2026-05-04 08:46 47.30281 11.01026 11098 ft 333 kts 264°
2026-05-04 08:47 47.30146 10.97576 11854 ft 340 kts 265°
2026-05-04 08:47 47.30014 10.94078 12715 ft 344 kts 265°
2026-05-04 08:47 47.29898 10.90541 13577 ft 348 kts 268°
2026-05-04 08:47 47.30162 10.86968 14304 ft 355 kts 281°
2026-05-04 08:48 47.31012 10.83526 15018 ft 362 kts 295°
2026-05-04 08:48 47.32430 10.80409 15682 ft 372 kts 309°
2026-05-04 08:48 47.34323 10.77764 16448 ft 377 kts 316°
2026-05-04 08:48 47.36287 10.75190 17215 ft 380 kts 316°
2026-05-04 08:49 47.38267 10.72577 17963 ft 384 kts 316°
2026-05-04 08:50 47.51777 10.58563 21785 ft 405 kts 323°
2026-05-04 08:50 47.54108 10.56187 22412 ft 408 kts 323°
2026-05-04 08:51 47.56451 10.53788 22995 ft 411 kts 323°
2026-05-04 08:51 47.58807 10.51361 23545 ft 415 kts 323°
2026-05-04 08:51 47.61188 10.48897 24002 ft 418 kts 322°
2026-05-04 08:51 47.63570 10.46427 24463 ft 421 kts 322°
2026-05-04 08:52 47.65980 10.43922 24935 ft 423 kts 322°
2026-05-04 08:52 47.68400 10.41407 25400 ft 425 kts 322°
2026-05-04 08:52 47.70830 10.38883 25860 ft 428 kts 322°
2026-05-04 08:52 47.73275 10.36344 26320 ft 430 kts 322°
2026-05-04 08:53 47.75710 10.33749 26767 ft 431 kts 320°
2026-05-04 08:54 47.91968 10.13739 29703 ft 447 kts 316°
2026-05-04 08:55 47.94403 10.10761 30079 ft 450 kts 316°
2026-05-04 08:55 47.96798 10.07837 30402 ft 452 kts 316°
2026-05-04 08:55 47.99248 10.04844 30717 ft 454 kts 316°
2026-05-04 08:55 48.01695 10.01847 31043 ft 456 kts 316°
2026-05-04 08:57 48.18381 9.81206 34204 ft 447 kts 315°
2026-05-04 09:01 48.49337 9.36822 36033 ft 439 kts 308°
2026-05-04 09:01 48.53483 9.30068 36031 ft 439 kts 308°
2026-05-04 09:02 48.57629 9.23299 36033 ft 439 kts 308°
2026-05-04 09:02 48.61768 9.16512 36021 ft 439 kts 308°
2026-05-04 09:03 48.65903 9.09717 36030 ft 439 kts 308°
2026-05-04 09:03 48.70031 9.02915 36024 ft 439 kts 307°
2026-05-04 09:04 48.74140 8.96118 36028 ft 439 kts 308°
2026-05-04 09:04 48.78270 8.89281 36032 ft 440 kts 308°
2026-05-04 09:05 48.82393 8.82437 36031 ft 439 kts 307°
2026-05-04 09:05 48.86479 8.75643 36048 ft 439 kts 307°
2026-05-04 09:06 48.90569 8.68812 36033 ft 440 kts 307°
2026-05-04 09:08 49.07020 8.41167 36027 ft 440 kts 307°
2026-05-04 09:08 49.11121 8.34226 36028 ft 440 kts 307°
2026-05-04 09:09 49.15215 8.27273 36025 ft 440 kts 307°
2026-05-04 09:09 49.18617 8.21491 36026 ft 440 kts 307°
2026-05-04 09:10 49.22710 8.14513 36028 ft 440 kts 307°
2026-05-04 09:10 49.26797 8.07530 36038 ft 440 kts 307°
2026-05-04 09:11 49.30878 8.00530 36049 ft 440 kts 307°
2026-05-04 09:11 49.34956 7.93531 36031 ft 440 kts 307°
2026-05-04 09:12 49.39034 7.86514 36021 ft 441 kts 307°
2026-05-04 09:14 49.55302 7.58286 36037 ft 441 kts 306°
2026-05-04 09:14 49.59362 7.51212 36031 ft 440 kts 306°
2026-05-04 09:15 49.63410 7.44121 36028 ft 440 kts 306°
2026-05-04 09:15 49.67449 7.37027 36023 ft 440 kts 306°
2026-05-04 09:17 49.85604 7.04899 36011 ft 441 kts 306°
2026-05-04 09:18 49.89608 6.97759 36001 ft 441 kts 306°
2026-05-04 09:18 49.93635 6.90565 36013 ft 441 kts 305°
2026-05-04 09:19 49.97658 6.83353 36040 ft 442 kts 305°
2026-05-04 09:19 50.01678 6.76122 36029 ft 442 kts 305°
2026-05-04 09:20 50.05695 6.68887 36029 ft 442 kts 305°
2026-05-04 09:20 50.09710 6.61640 36023 ft 442 kts 305°
2026-05-04 09:21 50.13716 6.54368 36015 ft 442 kts 305°
2026-05-04 09:21 50.17704 6.47077 36011 ft 441 kts 303°
2026-05-04 09:22 50.20884 6.39043 36032 ft 434 kts 293°
2026-05-04 09:22 50.23784 6.30781 36020 ft 434 kts 293°
2026-05-04 09:23 50.26691 6.22506 36019 ft 434 kts 293°
2026-05-04 09:23 50.29583 6.14216 36016 ft 434 kts 293°
2026-05-04 09:25 50.42168 5.81724 36024 ft 435 kts 295°
2026-05-04 09:26 50.45285 5.73573 36017 ft 435 kts 295°
2026-05-04 09:26 50.48385 5.65469 36013 ft 435 kts 295°
2026-05-04 09:27 50.51502 5.57321 36015 ft 435 kts 295°
2026-05-04 09:27 50.54610 5.49158 36025 ft 435 kts 295°
2026-05-04 09:28 50.57710 5.40989 36013 ft 435 kts 295°
2026-05-04 09:28 50.60815 5.32803 36012 ft 435 kts 295°
2026-05-04 09:29 50.63913 5.24614 36037 ft 435 kts 295°
2026-05-04 09:29 50.67003 5.16405 36032 ft 435 kts 295°
2026-05-04 09:30 50.70089 5.08185 36014 ft 436 kts 295°
2026-05-04 09:30 50.73172 4.99930 36001 ft 437 kts 295°
2026-05-04 09:31 50.76252 4.91671 35998 ft 437 kts 295°
2026-05-04 09:31 50.79314 4.83431 36009 ft 437 kts 295°
2026-05-04 09:32 50.82390 4.75133 36006 ft 437 kts 295°
2026-05-04 09:34 50.94782 4.41881 36031 ft 440 kts 296°
2026-05-04 09:34 50.97999 4.33613 36032 ft 440 kts 296°
2026-05-04 09:35 51.01190 4.25310 36023 ft 440 kts 295°
2026-05-04 09:35 51.04357 4.16982 36021 ft 440 kts 295°
2026-05-04 09:37 51.16942 3.83627 35999 ft 440 kts 295°
2026-05-04 09:38 51.20084 3.75248 36004 ft 440 kts 295°
2026-05-04 09:38 51.23096 3.66695 35994 ft 436 kts 288°
2026-05-04 09:39 51.24707 3.57570 35996 ft 428 kts 277°
2026-05-04 09:39 51.25935 3.48245 35995 ft 429 kts 277°
2026-05-04 09:40 51.27171 3.38927 36001 ft 429 kts 277°
2026-05-04 09:40 51.28384 3.29604 36020 ft 429 kts 277°
2026-05-04 09:42 51.33138 2.92085 36009 ft 431 kts 276°
2026-05-04 09:43 51.34299 2.82739 36019 ft 431 kts 277°
2026-05-04 09:43 51.35470 2.73296 36001 ft 432 kts 277°
2026-05-04 09:44 51.36633 2.63849 35457 ft 435 kts 276°
2026-05-04 09:44 51.37219 2.59054 34418 ft 442 kts 275°
2026-05-04 09:46 51.41338 2.25126 29016 ft 434 kts 276°
2026-05-04 09:46 51.42487 2.15649 29009 ft 433 kts 276°
2026-05-04 09:47 51.43643 2.06170 28508 ft 434 kts 276°
2026-05-04 09:49 51.47481 1.73627 21138 ft 409 kts 278°
2026-05-04 09:49 51.47991 1.69161 20195 ft 404 kts 278°
2026-05-04 09:49 51.48413 1.64735 19270 ft 399 kts 272°
2026-05-04 09:51 51.43934 1.40275 14400 ft 365 kts 241°
2026-05-04 09:51 51.43018 1.37988 14136 ft 356 kts 232°
2026-05-04 09:51 51.41354 1.35101 13781 ft 351 kts 221°
2026-05-04 09:51 51.39442 1.32757 13478 ft 350 kts 217°
2026-05-04 09:52 51.37490 1.30451 13206 ft 349 kts 217°
2026-05-04 09:52 51.35540 1.28143 12939 ft 347 kts 217°
2026-05-04 09:52 51.33604 1.25847 12679 ft 346 kts 217°
2026-05-04 09:52 51.31666 1.23553 12406 ft 346 kts 217°
2026-05-04 09:53 51.29736 1.21276 12149 ft 344 kts 217°
2026-05-04 09:53 51.27812 1.19007 11887 ft 343 kts 217°
2026-05-04 09:53 51.25892 1.16745 11625 ft 342 kts 217°
2026-05-04 09:53 51.23983 1.14499 11358 ft 341 kts 217°
2026-05-04 09:54 51.22078 1.12261 11094 ft 339 kts 217°
2026-05-04 09:54 51.20181 1.10034 10845 ft 338 kts 217°
2026-05-04 09:54 51.18311 1.07841 10632 ft 327 kts 217°
2026-05-04 09:54 51.16524 1.05748 10509 ft 311 kts 217°
2026-05-04 09:55 51.14820 1.03754 10386 ft 297 kts 217°
2026-05-04 09:55 51.13183 1.01841 10205 ft 287 kts 217°
2026-05-04 09:55 51.11588 0.99981 9986 ft 283 kts 217°
2026-05-04 09:55 51.10009 0.98142 9849 ft 281 kts 217°
2026-05-04 09:56 51.08430 0.96301 9718 ft 281 kts 217°
2026-05-04 09:56 51.06885 0.94469 9637 ft 280 kts 220°
2026-05-04 09:56 51.05565 0.92214 9461 ft 279 kts 235°
2026-05-04 09:56 51.04639 0.89522 9282 ft 278 kts 245°
2026-05-04 09:57 51.03822 0.86729 9100 ft 278 kts 245°
2026-05-04 09:57 51.03002 0.83958 8911 ft 277 kts 244°
2026-05-04 09:57 51.02178 0.81199 8727 ft 276 kts 244°
2026-05-04 09:57 51.01355 0.78457 8545 ft 275 kts 244°
2026-05-04 09:58 51.00529 0.75720 8361 ft 275 kts 244°
2026-05-04 09:58 50.99704 0.72978 8178 ft 275 kts 244°
2026-05-04 09:58 50.98882 0.70248 7995 ft 274 kts 244°
2026-05-04 10:00 50.93171 0.51312 7013 ft 271 kts 244°
2026-05-04 10:00 50.92357 0.48618 6811 ft 271 kts 243°
2026-05-04 10:02 50.94151 0.28454 5241 ft 269 kts 286°
2026-05-04 10:04 51.01426 0.11514 3989 ft 266 kts 291°
2026-05-04 10:04 51.01852 0.08672 3900 ft 265 kts 275°
2026-05-04 10:04 51.01977 0.05745 3841 ft 265 kts 274°
2026-05-04 10:04 51.02101 0.02819 3785 ft 265 kts 274°
2026-05-04 10:05 51.02227 -0.00081 3720 ft 260 kts 274°
2026-05-04 10:05 51.02347 -0.02866 3611 ft 245 kts 274°
2026-05-04 10:05 51.02459 -0.05506 3455 ft 235 kts 274°
2026-05-04 10:05 51.02568 -0.08085 3332 ft 234 kts 274°
2026-05-04 10:06 51.02678 -0.10663 3202 ft 234 kts 274°
2026-05-04 10:06 51.02787 -0.13248 3089 ft 235 kts 274°
2026-05-04 10:06 51.02896 -0.15833 3005 ft 234 kts 274°
2026-05-04 10:08 51.03532 -0.31277 3007 ft 232 kts 274°
2026-05-04 10:08 51.03628 -0.33722 3004 ft 217 kts 274°
2026-05-04 10:08 51.03721 -0.36054 3006 ft 207 kts 274°
2026-05-04 10:08 51.03809 -0.38317 3003 ft 205 kts 274°
2026-05-04 10:09 51.03896 -0.40570 3007 ft 204 kts 274°
2026-05-04 10:09 51.03983 -0.42806 3007 ft 201 kts 274°
2026-05-04 10:09 51.04071 -0.44997 3040 ft 195 kts 274°
2026-05-04 10:09 51.04159 -0.47134 3006 ft 194 kts 274°
2026-05-04 10:10 51.04243 -0.49232 3004 ft 192 kts 274°
2026-05-04 10:10 51.04329 -0.51352 3001 ft 193 kts 274°
2026-05-04 10:10 51.04668 -0.53390 2987 ft 192 kts 305°
2026-05-04 10:10 51.05737 -0.54560 2999 ft 189 kts 348°
2026-05-04 10:11 51.07025 -0.54429 3019 ft 187 kts 13°
2026-05-04 10:11 51.08316 -0.54123 3009 ft 187 kts
2026-05-04 10:11 51.09513 -0.53419 2996 ft 185 kts 38°
2026-05-04 10:11 51.10234 -0.51771 3000 ft 183 kts 72°
2026-05-04 10:12 51.10525 -0.49791 3006 ft 184 kts 78°
2026-05-04 10:12 51.10800 -0.47804 2999 ft 181 kts 78°
2026-05-04 10:12 51.11066 -0.45904 3000 ft 173 kts 78°
2026-05-04 10:12 51.11324 -0.44067 3005 ft 169 kts 77°
2026-05-04 10:13 51.11580 -0.42240 2907 ft 169 kts 78°
2026-05-04 10:13 51.11836 -0.40420 2725 ft 168 kts 77°
2026-05-04 10:13 51.12078 -0.38696 2523 ft 149 kts 77°
2026-05-04 10:13 51.12292 -0.37163 2325 ft 136 kts 77°
2026-05-04 10:14 51.12493 -0.35731 2148 ft 131 kts 77°
2026-05-04 10:14 51.12689 -0.34324 1979 ft 130 kts 77°
2026-05-04 10:16 51.14031 -0.24642 745 ft 127 kts 76°
2026-05-04 10:16 51.14222 -0.23277 575 ft 126 kts 76°
2026-05-04 10:16 51.14414 -0.21915 411 ft 125 kts 75°
2026-05-04 10:16 51.14599 -0.20581 246 ft 125 kts 75°
2026-05-04 10:17 51.14778 -0.19318 205 ft 103 kts 79°
2026-05-04 10:17 51.14893 -0.18447 206 ft 58 kts 78°
2026-05-04 10:19 51.15214 -0.17460 204 ft 3 kts 78°
2026-05-04 10:19 51.15217 -0.17432 214 ft 2 kts 78°
2026-05-04 10:19 51.15230 -0.17375 204 ft 9 kts 59°
2026-05-04 10:19 51.15298 -0.17350 204 ft 12 kts 347°
2026-05-04 10:20 51.15387 -0.17381 214 ft 14 kts 348°
2026-05-04 10:20 51.15487 -0.17417 204 ft 16 kts 347°
2026-05-04 10:20 51.15537 -0.17520 204 ft 14 kts 259°
2026-05-04 10:20 51.15516 -0.17674 209 ft 15 kts 258°
2026-05-04 10:21 51.15494 -0.17832 204 ft 10 kts 257°
2026-05-04 10:21 51.15448 -0.17875 210 ft 7 kts 166°
2026-05-04 10:21 51.15407 -0.17861 214 ft 0 kts 167°
2026-05-04 10:21 51.15404 -0.17860 214 ft 0 kts 167°